SV2GWY Weather Reports


Display with metric or nautical units.
time (UTC)temp
F
wind
direction
speed
MPH
gust
MPH
rain 1hr
in
rain 24hr
in
rain mn
in
humidity
%
barometer
mb
20260507113944 66 339 1.0 3.0 0.00 0.00 0.00 76 1019.7
20260507113444 66 34 1.0 3.0 0.00 0.00 0.00 75 1019.9
20260507113044 66 340 0.0 3.0 0.00 0.00 0.00 75 1019.8
20260507112954 66 311 0.0 3.0 0.00 0.00 0.00 75 1019.9
20260507112445 66 25 0.0 2.0 0.00 0.00 0.00 74 1020.0
20260507111955 66 307 1.0 3.0 0.00 0.00 0.00 72 1020.0
20260507111547 66 313 1.0 3.0 0.00 0.00 0.00 71 1020.0
20260507111453 66 283 1.0 3.0 0.00 0.00 0.00 71 1020.1
20260507110944 66 310 1.0 3.0 0.00 0.00 0.00 71 1020.1
20260507110446 66 319 1.0 3.0 0.00 0.00 0.00 70 1020.1
20260507110045 66 293 0.0 2.0 0.00 0.00 0.00 69 1019.9
20260507105954 66 303 1.0 3.0 0.00 0.00 0.00 69 1020.0
20260507105444 66 354 0.0 3.0 0.00 0.00 0.00 68 1020.0
20260507104944 67 330 1.0 3.0 0.00 0.00 0.00 67 1019.9
20260507104545 67 307 0.0 3.0 0.00 0.00 0.00 67 1019.8
20260507104454 67 307 0.0 5.0 0.00 0.00 0.00 66 1020.0
20260507103945 67 356 1.0 5.0 0.00 0.00 0.00 64 1020.0
20260507103445 67 285 2.0 4.0 0.00 0.00 0.00 62 1020.0
20260507103044 67 3 1.0 3.0 0.00 0.00 0.00 62 1019.7
20260507103005 67 288 1.0 4.0 0.00 0.00 0.00 61 1019.9
20260507102445 67 238 1.0 5.0 0.00 0.00 0.00 62 1020.0
20260507101956 67 227 2.0 5.0 0.00 0.00 0.00 62 1020.0
20260507101548 67 319 2.0 6.0 0.00 0.00 0.00 62 1019.8
20260507101454 67 302 2.0 6.0 0.00 0.00 0.00 62 1019.9
20260507100945 67 300 2.0 6.0 0.00 0.00 0.00 64 1020.0
20260507100446 68 338 3.0 5.0 0.00 0.00 0.00 63 1020.1
20260507100045 68 231 2.0 5.0 0.00 0.00 0.00 63 1019.8
20260507095955 68 295 3.0 5.0 0.00 0.00 0.00 63 1020.0
20260507095445 68 315 2.0 5.0 0.00 0.00 0.00 61 1019.9
20260507094946 68 307 3.0 5.0 0.00 0.00 0.00 60 1019.8
20260507094547 68 285 1.0 7.0 0.00 0.00 0.00 60 1019.5
20260507094455 68 251 1.0 7.0 0.00 0.00 0.00 60 1019.7
20260507093945 68 285 2.0 6.0 0.00 0.00 0.00 62 1019.6
20260507093446 68 299 3.0 6.0 0.00 0.00 0.00 60 1019.5
20260507093045 68 293 1.0 6.0 0.00 0.00 0.00 63 1019.2
20260507092955 68 304 1.0 6.0 0.00 0.00 0.00 62 1019.4
20260507092457 68 293 3.0 6.0 0.00 0.00 0.00 61 1019.3
20260507091946 68 279 4.0 6.0 0.00 0.00 0.00 61 1019.1
20260507091547 68 316 3.0 6.0 0.00 0.00 0.00 61 1018.9
20260507091454 68 15 4.0 6.0 0.00 0.00 0.00 62 1018.9
20260507090945 68 330 3.0 8.0 0.00 0.00 0.00 62 1018.9
20260507090445 68 321 3.0 8.0 0.00 0.00 0.00 60 1018.8
20260507090045 68 347 3.0 6.0 0.00 0.00 0.00 59 1018.6
20260507085954 68 307 4.0 6.0 0.00 0.00 0.00 59 1018.8
20260507085446 69 347 2.0 5.0 0.00 0.00 0.00 59 1018.7
20260507084945 69 328 2.0 5.0 0.00 0.00 0.00 57 1018.6
20260507084551 69 298 1.0 8.0 0.00 0.00 0.00 57 1018.4
20260507084455 69 302 2.0 8.0 0.00 0.00 0.00 59 1018.7
20260507083946 69 14 3.0 6.0 0.00 0.00 0.00 57 1018.6
20260507083445 69 319 2.0 6.0 0.00 0.00 0.00 58 1018.5
20260507083050 69 3 2.0 5.0 0.00 0.00 0.00 59 1018.4
20260507083005 69 314 3.0 5.0 0.00 0.00 0.00 59 1018.5
20260507082458 69 37 0.0 4.0 0.00 0.00 0.00 59 1018.5
20260507081946 69 316 1.0 4.0 0.00 0.00 0.00 59 1018.4
20260507081545 70 293 2.0 4.0 0.00 0.00 0.00 58 1018.3
20260507081455 70 317 3.0 4.0 0.00 0.00 0.00 58 1018.4
20260507080946 70 297 1.0 4.0 0.00 0.00 0.00 60 1018.4
20260507080446 69 282 2.0 4.0 0.00 0.00 0.00 58 1018.4
20260507080111 69 268 1.0 4.0 0.00 0.00 0.00 60 1018.2
20260507075956 69 255 1.0 4.0 0.00 0.00 0.00 60 1018.4
20260507075456 69 282 2.0 4.0 0.00 0.00 0.00 58 1018.3
20260507074945 68 292 2.0 6.0 0.00 0.00 0.00 60 1018.2
20260507074547 68 255 1.0 6.0 0.00 0.00 0.00 60 1018.0
20260507074455 68 20 2.0 6.0 0.00 0.00 0.00 60 1018.1
20260507073946 68 317 2.0 4.0 0.00 0.00 0.00 60 1018.1
20260507073446 68 268 2.0 5.0 0.00 0.00 0.00 60 1018.0
20260507073053 69 315 2.0 5.0 0.00 0.00 0.00 60 1017.8
20260507072956 69 302 2.0 5.0 0.00 0.00 0.00 59 1018.0
20260507072446 69 257 1.0 4.0 0.00 0.00 0.00 61 1017.9
20260507071957 68 285 1.0 4.0 0.00 0.00 0.00 61 1017.9
20260507071559 68 297 1.0 4.0 0.00 0.00 0.00 62 1017.6
20260507071506 67 23 1.0 4.0 0.00 0.00 0.00 62 1017.8
20260507070946 67 316 1.0 5.0 0.00 0.00 0.00 64 1017.9
20260507070446 67 73 2.0 5.0 0.00 0.00 0.00 66 1017.9
20260507070046 67 304 1.0 5.0 0.00 0.00 0.00 67 1017.8
20260507065955 67 304 2.0 5.0 0.00 0.00 0.00 67 1018.0
20260507065446 67 306 3.0 5.0 0.00 0.00 0.00 67 1018.0
20260507064946 67 319 1.0 4.0 0.00 0.00 0.00 65 1018.0
20260507064551 68 286 1.0 4.0 0.00 0.00 0.00 63 1017.9
20260507064506 68 285 2.0 4.0 0.00 0.00 0.00 63 1018.0
20260507063946 68 356 1.0 3.0 0.00 0.00 0.00 64 1018.1
20260507063446 68 304 2.0 5.0 0.00 0.00 0.00 64 1018.1
20260507063048 68 328 1.0 5.0 0.00 0.00 0.00 63 1017.9
20260507062955 68 329 2.0 5.0 0.00 0.00 0.00 63 1018.1
20260507062446 68 240 1.0 3.0 0.00 0.00 0.00 61 1018.0
20260507061946 68 239 1.0 3.0 0.00 0.00 0.00 62 1018.0
20260507061546 68 262 1.0 3.0 0.00 0.00 0.00 62 1017.7
20260507061506 68 286 2.0 3.0 0.00 0.00 0.00 61 1017.9
20260507060946 69 60 0.0 2.0 0.00 0.00 0.00 64 1017.8
20260507060446 69 51 0.0 2.0 0.00 0.00 0.00 64 1017.8
20260507060046 68 44 0.0 2.0 0.00 0.00 0.00 65 1017.6
20260507055956 68 47 0.0 2.0 0.00 0.00 0.00 65 1017.7
20260507055446 68 72 1.0 2.0 0.00 0.00 0.00 66 1017.6
20260507054948 69 121 0.0 2.0 0.00 0.00 0.00 67 1017.7
20260507054552 69 137 0.0 2.0 0.00 0.00 0.00 67 1017.5
20260507054506 69 137 0.0 2.0 0.00 0.00 0.00 67 1017.7
20260507053946 68 60 0.0 1.0 0.00 0.00 0.00 67 1017.7
20260507053446 67 60 0.0 1.0 0.00 0.00 0.00 70 1017.7
20260507053048 66 59 0.0 1.0 0.00 0.00 0.00 77 1017.6
20260507052957 65 59 0.0 1.0 0.00 0.00 0.00 77 1017.7
20260507052446 64 59 0.0 2.0 0.00 0.00 0.00 79 1017.6
20260507051958 65 58 1.0 2.0 0.00 0.00 0.00 77 1017.5
20260507051547 65 88 0.0 1.0 0.00 0.00 0.00 76 1017.3
20260507051456 65 158 0.0 1.0 0.00 0.00 0.00 77 1017.4
20260507050946 64 162 0.0 2.0 0.00 0.00 0.00 79 1017.4
20260507050458 63 167 1.0 2.0 0.00 0.00 0.00 80 1017.5
20260507050046 62 158 0.0 2.0 0.00 0.00 0.00 82 1017.3
20260507045955 62 166 1.0 2.0 0.00 0.00 0.00 82 1017.5
20260507045446 61 149 0.0 1.0 0.00 0.00 0.00 84 1017.5
20260507044947 60 184 0.0 2.0 0.00 0.00 0.00 86 1017.5
20260507044546 59 162 0.0 2.0 0.00 0.00 0.00 86 1017.4
20260507044456 59 155 0.0 2.0 0.00 0.00 0.00 87 1017.5
20260507043949 58 177 1.0 2.0 0.00 0.00 0.00 87 1017.5
20260507043457 57 140 1.0 2.0 0.00 0.00 0.00 89 1017.4
20260507043047 57 155 0.0 1.0 0.00 0.00 0.00 91 1017.2
20260507042956 56 163 0.0 1.0 0.00 0.00 0.00 91 1017.5
20260507042446 55 164 0.0 0.0 0.00 0.00 0.00 91 1017.4
20260507041948 54 149 0.0 1.0 0.00 0.00 0.00 92 1017.5
20260507041549 54 167 0.0 1.0 0.00 0.00 0.00 91 1017.3
20260507041457 54 205 0.0 1.0 0.00 0.00 0.00 91 1017.3
20260507040958 53 139 0.0 2.0 0.00 0.00 0.00 91 1017.3
20260507040448 53 139 0.0 2.0 0.00 0.00 0.00 91 1017.3
20260507040058 53 200 0.0 0.0 0.00 0.00 0.00 91 1017.0
20260507040007 53 207 0.0 0.0 0.00 0.00 0.00 91 1017.2
20260507035459 53 207 0.0 0.0 0.00 0.00 0.00 92 1017.0
20260507034947 53 207 0.0 0.0 0.00 0.00 0.00 91 1017.0
20260507034555 53 207 0.0 0.0 0.00 0.00 0.00 91 1016.8
20260507034456 53 207 0.0 1.0 0.00 0.00 0.00 91 1017.0
20260507033947 53 207 0.0 1.0 0.00 0.00 0.00 91 1016.9
20260507033447 53 212 0.0 1.0 0.00 0.00 0.00 91 1016.9
20260507033047 53 131 0.0 0.0 0.00 0.00 0.00 91 1016.8
20260507033007 53 131 0.0 0.0 0.00 0.00 0.00 91 1016.8
20260507032447 53 131 0.0 1.0 0.00 0.00 0.00 92 1016.8
20260507031947 53 237 0.0 1.0 0.00 0.00 0.00 91 1016.8
20260507031547 53 237 0.0 1.0 0.00 0.00 0.00 91 1016.7
20260507031456 53 238 0.0 1.0 0.00 0.00 0.00 91 1016.8
20260507030947 53 244 0.0 1.0 0.00 0.00 0.00 91 1016.8
20260507030447 53 227 0.0 1.0 0.00 0.00 0.00 91 1016.8
20260507030053 53 190 0.0 1.0 0.00 0.00 0.00 91 1016.6
20260507025956 53 158 0.0 1.0 0.00 0.00 0.00 91 1016.7
20260507025447 53 223 0.0 1.0 0.00 0.00 0.00 92 1016.7
20260507024958 53 226 0.0 2.0 0.00 0.00 0.00 91 1016.7
20260507024547 53 167 0.0 2.0 0.00 0.00 0.00 91 1016.5
20260507024457 53 164 1.0 2.0 0.00 0.00 0.00 91 1016.7
20260507023947 53 172 0.0 1.0 0.00 0.00 0.00 91 1016.7
20260507023458 53 162 0.0 1.0 0.00 0.00 0.00 91 1016.7
20260507023047 53 161 0.0 1.0 0.00 0.00 0.00 91 1016.5
20260507022956 53 161 0.0 1.0 0.00 0.00 0.00 91 1016.6
20260507022447 53 233 0.0 1.0 0.00 0.00 0.00 91 1016.6
20260507021947 53 231 0.0 1.0 0.00 0.00 0.00 91 1016.5
20260507021548 53 194 0.0 1.0 0.00 0.00 0.00 91 1016.5
20260507021456 53 141 0.0 1.0 0.00 0.00 0.00 91 1016.7
20260507020947 53 170 0.0 0.0 0.00 0.00 0.00 91 1016.8
20260507020448 53 186 0.0 1.0 0.00 0.00 0.00 91 1016.7
20260507020057 53 186 0.0 1.0 0.00 0.00 0.00 91 1016.5
20260507015957 53 230 0.0 1.0 0.00 0.00 0.00 91 1016.6
20260507015453 53 240 0.0 0.0 0.00 0.00 0.00 91 1016.5
20260507014947 54 240 0.0 1.0 0.00 0.00 0.00 91 1016.5
20260507014559 54 260 0.0 1.0 0.00 0.00 0.00 91 1016.4
20260507014457 53 259 1.0 1.0 0.00 0.00 0.00 91 1016.5
20260507013947 53 241 0.0 1.0 0.00 0.00 0.00 91 1016.4
20260507013500 53 176 0.0 2.0 0.00 0.00 0.00 91 1016.6
20260507013048 53 146 0.0 2.0 0.00 0.00 0.00 90 1016.3
20260507012958 53 134 1.0 2.0 0.00 0.00 0.00 90 1016.5
20260507012500 54 195 0.0 0.0 0.00 0.00 0.00 91 1016.5
20260507011948 54 207 0.0 0.0 0.00 0.00 0.00 91 1016.5
20260507011556 54 206 0.0 1.0 0.00 0.00 0.00 91 1016.2
20260507011457 54 206 0.0 1.0 0.00 0.00 0.00 91 1016.4
20260507010959 54 210 0.0 1.0 0.00 0.00 0.00 91 1016.4
20260507010447 54 208 0.0 1.0 0.00 0.00 0.00 91 1016.4
20260507010048 54 233 0.0 1.0 0.00 0.00 0.00 91 1016.3
20260507010008 54 234 0.0 1.0 0.00 0.00 0.00 91 1016.4
20260507005448 54 203 0.0 3.0 0.00 0.00 0.00 90 1016.4
20260507004949 54 198 0.0 1.0 0.00 0.00 0.00 90 1016.4
20260507004548 54 251 0.0 0.0 0.00 0.00 0.00 90 1016.2
20260507004457 54 251 0.0 0.0 0.00 0.00 0.00 90 1016.3
20260507003948 54 255 0.0 0.0 0.00 0.00 0.00 90 1016.3
20260507003448 54 134 0.0 1.0 0.00 0.00 0.00 90 1016.2
20260507003048 54 215 0.0 1.0 0.00 0.00 0.00 90 1016.0
20260507002957 54 214 0.0 1.0 0.00 0.00 0.00 90 1016.2
20260507002459 55 224 0.0 1.0 0.00 0.00 0.00 90 1016.1
20260507001948 55 226 0.0 2.0 0.00 0.00 0.00 90 1016.2
20260507001605 55 226 0.0 3.0 0.00 0.00 0.00 90 1016.1
20260507001457 55 226 0.0 3.0 0.00 0.00 0.00 90 1016.2
20260507000948 55 203 1.0 3.0 0.00 0.00 0.00 90 1016.2
20260507000450 54 288 0.0 3.0 0.00 0.00 0.00 90 1016.3
20260507000057 55 212 0.0 1.0 0.00 0.00 0.00 89 1016.2
20260506235958 55 204 0.0 1.0 0.00 0.00 0.00 89 1016.4
20260506235448 55 195 0.0 1.0 0.00 0.00 0.00 89 1016.5
20260506234948 55 131 0.0 2.0 0.00 0.00 0.00 89 1016.4
20260506234548 55 179 0.0 2.0 0.00 0.00 0.00 89 1016.3
20260506234457 55 179 0.0 2.0 0.00 0.00 0.00 89 1016.5
20260506233959 55 229 0.0 1.0 0.00 0.00 0.00 89 1016.6
20260506233450 55 233 0.0 1.0 0.00 0.00 0.00 89 1016.6
20260506233048 55 233 0.0 1.0 0.00 0.00 0.00 89 1016.5
20260506232957 55 233 0.0 1.0 0.00 0.00 0.00 89 1016.5
20260506232448 55 181 0.0 2.0 0.00 0.00 0.00 89 1016.6
20260506231948 55 182 0.0 2.0 0.00 0.00 0.00 89 1016.6
20260506231548 55 213 0.0 0.0 0.00 0.00 0.00 89 1016.4
20260506231457 55 213 0.0 0.0 0.00 0.00 0.00 89 1016.5
20260506230948 55 212 0.0 1.0 0.00 0.00 0.00 89 1016.5
20260506230449 54 211 0.0 1.0 0.00 0.00 0.00 89 1016.4
20260506230051 54 204 0.0 1.0 0.00 0.00 0.00 88 1016.4
20260506225958 54 204 0.0 1.0 0.00 0.00 0.00 88 1016.5
20260506225449 55 138 0.0 1.0 0.00 0.00 0.00 88 1016.6
20260506224948 55 191 0.0 0.0 0.00 0.00 0.00 88 1016.5
20260506224549 55 207 0.0 1.0 0.00 0.00 0.00 88 1016.4
20260506224458 55 207 0.0 1.0 0.00 0.00 0.00 88 1016.4
20260506223948 55 207 0.0 1.0 0.00 0.00 0.00 88 1016.5
20260506223448 55 269 0.0 1.0 0.00 0.00 0.00 87 1016.5
20260506223048 55 144 0.0 1.0 0.00 0.00 0.00 87 1016.4
20260506223010 55 159 0.0 1.0 0.00 0.00 0.00 87 1016.5
20260506222448 55 164 0.0 1.0 0.00 0.00 0.00 87 1016.6
20260506222000 55 223 0.0 2.0 0.00 0.00 0.00 87 1016.6
20260506221548 55 200 0.0 2.0 0.00 0.00 0.00 87 1016.5
20260506221458 55 221 0.0 2.0 0.00 0.00 0.00 87 1016.5
20260506220950 55 222 1.0 3.0 0.00 0.00 0.00 86 1016.6
20260506220450 55 167 1.0 3.0 0.00 0.00 0.00 86 1016.6
20260506220058 56 198 0.0 2.0 0.00 0.00 0.00 85 1016.5
20260506215958 56 240 0.0 2.0 0.00 0.00 0.00 85 1016.6
20260506215450 56 226 1.0 2.0 0.00 0.00 0.00 85 1016.7
20260506214949 56 161 0.0 2.0 0.00 0.00 0.00 85 1016.7
20260506214549 56 276 0.0 2.0 0.00 0.00 0.00 84 1016.6
20260506214458 56 207 0.0 2.0 0.00 0.00 0.00 84 1016.7
20260506213950 56 221 1.0 2.0 0.00 0.00 0.00 83 1016.7
20260506213449 56 136 1.0 2.0 0.00 0.00 0.00 83 1016.7
20260506213052 56 216 0.0 2.0 0.00 0.00 0.00 83 1016.5
20260506212958 56 216 0.0 2.0 0.00 0.00 0.00 83 1016.7
20260506212449 56 219 0.0 2.0 0.00 0.00 0.00 83 1016.8
20260506211950 57 198 0.0 2.0 0.00 0.00 0.00 83 1016.8
20260506211550 57 148 1.0 2.0 0.00 0.00 0.00 83 1016.5
20260506211458 57 158 1.0 2.0 0.00 0.00 0.00 83 1016.7
20260506210949 57 169 0.0 4.0 0.00 0.00 0.00 83 1016.7
20260506210451 57 240 1.0 4.0 0.00 0.00 0.00 82 1016.8
20260506210059 57 216 0.0 1.0 0.00 0.00 0.00 83 1016.8
20260506205958 57 216 0.0 1.0 0.00 0.00 0.00 83 1016.9
20260506205450 57 265 0.0 1.0 0.00 0.00 0.00 83 1016.7
20260506205000 57 225 0.0 2.0 0.00 0.00 0.00 82 1016.7
20260506204552 58 155 0.0 2.0 0.00 0.00 0.00 82 1016.5
20260506204459 58 179 1.0 2.0 0.00 0.00 0.00 83 1016.7
20260506203950 58 248 1.0 2.0 0.00 0.00 0.00 83 1016.5
20260506203449 57 143 0.0 2.0 0.00 0.00 0.00 83 1016.5
20260506203138 58 239 0.0 3.0 0.00 0.00 0.00 83 1016.4
20260506202958 58 153 0.0 3.0 0.00 0.00 0.00 83 1016.5
20260506202449 58 266 1.0 2.0 0.00 0.00 0.00 83 1016.5
20260506201949 58 136 0.0 2.0 0.00 0.00 0.00 84 1016.6
20260506201549 58 165 0.0 2.0 0.00 0.00 0.00 84 1016.4
20260506201459 58 134 0.0 2.0 0.00 0.00 0.00 84 1016.5
20260506201001 58 144 0.0 2.0 0.00 0.00 0.00 84 1016.5
20260506200449 58 213 0.0 2.0 0.00 0.00 0.00 84 1016.5
20260506200051 59 254 0.0 2.0 0.00 0.00 0.00 84 1016.2
20260506200000 59 254 0.0 2.0 0.00 0.00 0.00 84 1016.4
20260506195500 59 255 0.0 1.0 0.00 0.00 0.00 84 1016.3
20260506194949 59 219 0.0 2.0 0.00 0.00 0.00 84 1016.2
20260506194550 59 205 0.0 3.0 0.00 0.00 0.00 85 1016.0
20260506194459 59 136 0.0 4.0 0.00 0.00 0.00 85 1016.1
20260506193951 59 220 1.0 4.0 0.00 0.00 0.00 85 1016.2
20260506193450 59 187 1.0 3.0 0.00 0.00 0.00 84 1016.1
20260506193049 59 194 0.0 2.0 0.00 0.00 0.00 85 1016.0
20260506193010 59 229 1.0 2.0 0.00 0.00 0.00 85 1016.2
20260506192451 59 224 0.0 3.0 0.00 0.00 0.00 85 1016.1
20260506191949 59 205 1.0 2.0 0.00 0.00 0.00 85 1016.1
20260506191553 60 141 0.0 3.0 0.00 0.00 0.00 85 1015.9
20260506191459 60 226 1.0 3.0 0.00 0.00 0.00 85 1016.1
20260506190949 60 220 1.0 3.0 0.00 0.00 0.00 85 1016.0
20260506190451 60 212 0.0 3.0 0.00 0.00 0.00 85 1016.2
20260506190054 60 195 0.0 2.0 0.00 0.00 0.00 85 1015.8
20260506185959 60 207 0.0 3.0 0.00 0.00 0.00 85 1016.0
20260506185451 60 227 1.0 3.0 0.00 0.00 0.00 85 1016.0
20260506184950 60 219 1.0 3.0 0.00 0.00 0.00 84 1015.9
20260506184557 60 135 0.0 3.0 0.00 0.00 0.00 84 1015.7
20260506184459 60 217 1.0 3.0 0.00 0.00 0.00 84 1015.8
20260506183950 60 222 1.0 4.0 0.00 0.00 0.00 84 1015.9
20260506183450 60 249 1.0 4.0 0.00 0.00 0.00 84 1015.7
20260506183053 60 236 0.0 4.0 0.00 0.00 0.00 84 1015.6
20260506183000 60 205 1.0 4.0 0.00 0.00 0.00 84 1015.8
20260506182451 60 223 1.0 4.0 0.00 0.00 0.00 84 1015.8
20260506181950 60 230 1.0 3.0 0.00 0.00 0.00 83 1015.7
20260506181556 60 219 0.0 4.0 0.00 0.00 0.00 83 1015.3
20260506181459 60 195 1.0 4.0 0.00 0.00 0.00 83 1015.6
20260506180951 61 206 1.0 4.0 0.00 0.00 0.00 82 1015.5
20260506180451 61 230 1.0 4.0 0.00 0.00 0.00 82 1015.5
20260506180053 61 231 0.0 4.0 0.00 0.00 0.00 82 1015.2
20260506180000 61 224 1.0 4.0 0.00 0.00 0.00 82 1015.4
20260506175502 61 196 1.0 4.0 0.00 0.00 0.00 82 1015.3
20260506174950 62 233 2.0 4.0 0.00 0.00 0.00 81 1015.3
20260506174605 62 143 2.0 4.0 0.00 0.00 0.00 81 1015.0
20260506174501 62 227 1.0 4.0 0.00 0.00 0.00 81 1015.3
20260506173951 62 206 2.0 5.0 0.00 0.00 0.00 81 1015.2
20260506173452 63 199 2.0 5.0 0.00 0.00 0.00 80 1015.1
20260506173055 63 211 2.0 5.0 0.00 0.00 0.00 79 1014.9
20260506173011 63 118 2.0 5.0 0.00 0.00 0.00 79 1015.2
20260506172451 63 179 2.0 5.0 0.00 0.00 0.00 79 1015.1
20260506171951 64 209 2.0 6.0 0.00 0.00 0.00 79 1015.2
20260506171557 64 148 2.0 6.0 0.00 0.00 0.00 78 1014.9
20260506171459 64 215 3.0 6.0 0.00 0.00 0.00 78 1015.0
20260506170951 65 250 3.0 7.0 0.00 0.00 0.00 77 1015.1
20260506170452 65 155 3.0 7.0 0.00 0.00 0.00 76 1015.1
20260506170051 66 152 2.0 6.0 0.00 0.00 0.00 75 1014.8
20260506170012 66 219 2.0 6.0 0.00 0.00 0.00 75 1015.2
20260506165452 67 185 2.0 5.0 0.00 0.00 0.00 73 1015.0
20260506164951 68 121 3.0 5.0 0.00 0.00 0.00 72 1015.1
20260506164554 69 177 2.0 4.0 0.00 0.00 0.00 71 1014.9
20260506164502 69 191 2.0 4.0 0.00 0.00 0.00 71 1015.0
20260506163952 69 194 2.0 7.0 0.00 0.00 0.00 70 1015.0
20260506163450 70 169 3.0 7.0 0.00 0.00 0.00 68 1015.0
20260506163104 70 169 2.0 6.0 0.00 0.00 0.00 68 1014.8
20260506163012 71 147 3.0 6.0 0.00 0.00 0.00 67 1014.9
20260506162451 71 190 3.0 6.0 0.00 0.00 0.00 66 1014.9
20260506161950 72 190 3.0 10.0 0.00 0.00 0.00 64 1014.9
20260506161551 72 233 3.0 10.0 0.00 0.00 0.00 63 1014.6
20260506161512 72 128 4.0 10.0 0.00 0.00 0.00 63 1014.8
20260506160952 72 250 3.0 7.0 0.00 0.00 0.00 62 1014.8
20260506160452 73 153 4.0 8.0 0.00 0.00 0.00 61 1014.8
20260506160051 73 167 2.0 8.0 0.00 0.00 0.00 60 1014.5
20260506160012 73 133 3.0 8.0 0.00 0.00 0.00 60 1014.8
20260506155451 74 158 3.0 7.0 0.00 0.00 0.00 58 1014.8
20260506154952 74 162 3.0 7.0 0.00 0.00 0.00 57 1014.8
20260506154554 74 255 3.0 8.0 0.00 0.00 0.00 57 1014.6
20260506154512 74 132 3.0 8.0 0.00 0.00 0.00 56 1014.8
20260506153952 74 158 4.0 9.0 0.00 0.00 0.00 56 1014.9
20260506153452 74 234 5.0 10.0 0.00 0.00 0.00 55 1014.9
20260506153100 75 142 4.0 10.0 0.00 0.00 0.00 55 1014.7
20260506153001 75 179 5.0 11.0 0.00 0.00 0.00 55 1015.0
20260506152452 75 53 6.0 11.0 0.00 0.00 0.00 53 1014.9
20260506151952 75 193 4.0 9.0 0.00 0.00 0.00 53 1014.9
20260506151551 75 164 4.0 10.0 0.00 0.00 0.00 52 1014.7
20260506151500 75 156 5.0 10.0 0.00 0.00 0.00 51 1014.9
20260506150951 76 167 4.0 11.0 0.00 0.00 0.00 51 1014.9
20260506150452 76 222 5.0 11.0 0.00 0.00 0.00 51 1014.9
20260506150051 76 164 4.0 9.0 0.00 0.00 0.00 50 1014.7
20260506150000 76 145 5.0 9.0 0.00 0.00 0.00 50 1014.9
20260506145503 76 204 4.0 9.0 0.00 0.00 0.00 49 1015.0
20260506144952 77 187 4.0 9.0 0.00 0.00 0.00 49 1015.0
20260506144551 77 157 4.0 10.0 0.00 0.00 0.00 48 1014.8
20260506144500 77 219 4.0 10.0 0.00 0.00 0.00 48 1015.0
20260506144003 77 184 4.0 10.0 0.00 0.00 0.00 48 1015.0
20260506143502 77 172 4.0 9.0 0.00 0.00 0.00 47 1015.0
20260506143051 77 214 5.0 9.0 0.00 0.00 0.00 46 1014.8
20260506143000 77 174 5.0 10.0 0.00 0.00 0.00 46 1015.0
20260506142451 77 135 5.0 10.0 0.00 0.00 0.00 45 1015.1
20260506141952 77 190 6.0 9.0 0.00 0.00 0.00 45 1015.1
20260506141551 78 138 4.0 9.0 0.00 0.00 0.00 44 1014.9
20260506141513 78 229 4.0 9.0 0.00 0.00 0.00 44 1015.2
20260506140951 78 173 4.0 12.0 0.00 0.00 0.00 44 1015.2
20260506140502 78 208 6.0 12.0 0.00 0.00 0.00 43 1015.2
20260506140051 78 128 5.0 9.0 0.00 0.00 0.00 43 1015.0
20260506140000 78 175 5.0 9.0 0.00 0.00 0.00 43 1015.2
20260506135452 78 235 4.0 11.0 0.00 0.00 0.00 43 1015.2
20260506134951 78 152 5.0 11.0 0.00 0.00 0.00 42 1015.3
20260506134551 78 176 4.0 9.0 0.00 0.00 0.00 42 1015.0
20260506134500 78 212 4.0 9.0 0.00 0.00 0.00 42 1015.3
20260506133951 78 193 4.0 13.0 0.00 0.00 0.00 42 1015.3
20260506133503 78 207 4.0 13.0 0.00 0.00 0.00 41 1015.3
20260506133052 78 127 5.0 12.0 0.00 0.00 0.00 41 1015.2
20260506133000 78 148 5.0 12.0 0.00 0.00 0.00 41 1015.5
20260506132451 78 274 4.0 10.0 0.00 0.00 0.00 41 1015.4
20260506131951 78 151 5.0 10.0 0.00 0.00 0.00 40 1015.5
20260506131556 78 223 4.0 10.0 0.00 0.00 0.00 40 1015.3
20260506131512 78 207 5.0 10.0 0.00 0.00 0.00 40 1015.5
20260506131003 78 261 6.0 11.0 0.00 0.00 0.00 42 1015.6
20260506130452 78 148 6.0 11.0 0.00 0.00 0.00 42 1015.6
20260506130053 78 221 4.0 9.0 0.00 0.00 0.00 42 1015.3
20260506130001 78 226 5.0 9.0 0.00 0.00 0.00 42 1015.7
20260506125451 78 149 4.0 10.0 0.00 0.00 0.00 42 1015.6
20260506124952 78 225 6.0 11.0 0.00 0.00 0.00 41 1015.7
20260506124553 79 159 4.0 11.0 0.00 0.00 0.00 42 1015.5
20260506124501 78 209 5.0 11.0 0.00 0.00 0.00 41 1015.7
20260506124003 79 217 4.0 9.0 0.00 0.00 0.00 41 1015.8
20260506123452 79 205 4.0 11.0 0.00 0.00 0.00 40 1015.8
20260506123102 79 183 4.0 11.0 0.00 0.00 0.00 41 1015.5
20260506123001 79 153 5.0 11.0 0.00 0.00 0.00 40 1015.8
20260506122452 79 140 5.0 9.0 0.00 0.00 0.00 41 1015.9
20260506121952 79 155 5.0 9.0 0.00 0.00 0.00 41 1016.0
20260506121605 79 221 3.0 9.0 0.00 0.00 0.00 41 1015.8
20260506121512 79 105 4.0 9.0 0.00 0.00 0.00 41 1015.9
20260506120952 79 212 4.0 10.0 0.00 0.00 0.00 41 1015.9
20260506120452 79 205 4.0 11.0 0.00 0.00 0.00 42 1015.9
20260506120052 79 179 5.0 11.0 0.00 0.00 0.00 39 1015.7
20260506120001 79 137 5.0 11.0 0.00 0.00 0.00 40 1015.9
20260506115452 79 141 5.0 10.0 0.00 0.00 0.00 41 1016.0
20260506114952 78 210 4.0 10.0 0.00 0.00 0.00 42 1016.0
20260506114553 78 192 2.0 9.0 0.00 0.00 0.00 42 1016.0
20260506114523 78 153 3.0 9.0 0.00 0.00 0.00 42 1016.2